| time (UTC) | temp F | wind direction | speed MPH | gust MPH | rain 1hr in | rain 24hr in | rain mn in | humidity % | barometer mb |
| 20260507193107 | 46 | 210 | 8.0 | 17.0 | 0.00 | 0.00 | 0.00 | 54 | 1019.1 |
| 20260507191515 | 47 | 158 | 10.0 | 22.0 | 0.00 | 0.00 | 0.00 | 52 | 1019.4 |
| 20260507190056 | 46 | 219 | 5.0 | 19.0 | 0.00 | 0.00 | 0.00 | 56 | 1019.2 |
| 20260507184550 | 46 | 210 | 11.0 | 21.0 | 0.00 | 0.00 | 0.00 | 55 | 1019.3 |
| 20260507183003 | 45 | 120 | 9.0 | 22.0 | 0.00 | 0.00 | 0.00 | 56 | 1019.2 |
| 20260507181555 | 44 | 162 | 7.0 | 19.0 | 0.00 | 0.00 | 0.00 | 56 | 1019.2 |
| 20260507180048 | 44 | 193 | 11.0 | 21.0 | 0.00 | 0.00 | 0.00 | 56 | 1019.5 |
| 20260507174502 | 45 | 153 | 7.0 | 20.0 | 0.00 | 0.00 | 0.00 | 57 | 1019.3 |
| 20260507173128 | 45 | 160 | 6.0 | 16.0 | 0.00 | 0.00 | 0.00 | 57 | 1019.4 |
| 20260507171551 | 43 | 179 | 9.0 | 21.0 | 0.00 | 0.00 | 0.00 | 58 | 1019.3 |
| 20260507170002 | 44 | 175 | 8.0 | 16.0 | 0.00 | 0.00 | 0.00 | 58 | 1019.3 |
| 20260507164607 | 43 | 177 | 7.0 | 20.0 | 0.00 | 0.00 | 0.00 | 60 | 1019.4 |
| 20260507163049 | 42 | 224 | 5.0 | 17.0 | 0.00 | 0.00 | 0.00 | 62 | 1019.2 |
| 20260507161559 | 42 | 125 | 4.0 | 17.0 | 0.00 | 0.00 | 0.00 | 62 | 1019.2 |
| 20260507160115 | 41 | 237 | 3.0 | 10.0 | 0.00 | 0.00 | 0.00 | 63 | 1019.3 |
| 20260507154555 | 41 | 99 | 4.0 | 12.0 | 0.00 | 0.00 | 0.00 | 63 | 1019.3 |
| 20260507153045 | 41 | 216 | 3.0 | 11.0 | 0.00 | 0.00 | 0.00 | 64 | 1019.3 |
| 20260507151600 | 41 | 243 | 3.0 | 10.0 | 0.00 | 0.00 | 0.00 | 65 | 1019.3 |
| 20260507150057 | 40 | 259 | 3.0 | 11.0 | 0.00 | 0.00 | 0.00 | 66 | 1019.2 |
| 20260507144558 | 40 | 233 | 4.0 | 11.0 | 0.00 | 0.00 | 0.00 | 67 | 1019.3 |
| 20260507143111 | 39 | 240 | 3.0 | 7.0 | 0.00 | 0.00 | 0.00 | 69 | 1019.1 |
| 20260507141613 | 38 | 226 | 2.0 | 6.0 | 0.00 | 0.00 | 0.00 | 71 | 1019.2 |
| 20260507140056 | 38 | 181 | 3.0 | 9.0 | 0.00 | 0.00 | 0.00 | 71 | 1019.4 |
| 20260507134550 | 38 | 212 | 2.0 | 7.0 | 0.00 | 0.00 | 0.00 | 71 | 1019.3 |
| 20260507133106 | 38 | 165 | 4.0 | 9.0 | 0.00 | 0.00 | 0.00 | 71 | 1019.3 |
| 20260507131551 | 38 | 165 | 3.0 | 13.0 | 0.00 | 0.00 | 0.00 | 71 | 1019.1 |
| 20260507130044 | 38 | 258 | 3.0 | 8.0 | 0.00 | 0.00 | 0.00 | 71 | 1019.1 |
| 20260507124548 | 38 | 109 | 2.0 | 8.0 | 0.00 | 0.00 | 0.00 | 72 | 1019.3 |
| 20260507123057 | 38 | 207 | 2.0 | 12.0 | 0.00 | 0.00 | 0.00 | 72 | 1019.3 |
| 20260507121557 | 38 | 225 | 1.0 | 8.0 | 0.00 | 0.00 | 0.00 | 73 | 1019.3 |
| 20260507120047 | 38 | 123 | 2.0 | 7.0 | 0.00 | 0.00 | 0.00 | 73 | 1019.4 |
| 20260507114502 | 38 | 186 | 1.0 | 10.0 | 0.00 | 0.00 | 0.00 | 72 | 1019.3 |
| 20260507113054 | 38 | 146 | 5.0 | 11.0 | 0.00 | 0.00 | 0.00 | 71 | 1019.2 |
| 20260507111557 | 39 | 195 | 4.0 | 13.0 | 0.00 | 0.00 | 0.00 | 71 | 1019.3 |
| 20260507104555 | 39 | 243 | 5.0 | 13.0 | 0.00 | 0.00 | 0.00 | 71 | 1019.3 |
| 20260507103046 | 39 | 193 | 6.0 | 14.0 | 0.00 | 0.00 | 0.00 | 72 | 1019.2 |
| 20260507101502 | 39 | 212 | 4.0 | 11.0 | 0.00 | 0.00 | 0.00 | 72 | 1019.0 |
| 20260507100051 | 39 | 144 | 6.0 | 13.0 | 0.00 | 0.00 | 0.00 | 71 | 1019.0 |
| 20260507094548 | 39 | 186 | 5.0 | 13.0 | 0.00 | 0.00 | 0.00 | 71 | 1018.9 |
| 20260507093045 | 39 | 229 | 6.0 | 13.0 | 0.00 | 0.00 | 0.00 | 70 | 1018.8 |
| 20260507091556 | 39 | 197 | 5.0 | 12.0 | 0.00 | 0.00 | 0.00 | 70 | 1018.6 |
| 20260507090052 | 39 | 193 | 5.0 | 13.0 | 0.00 | 0.00 | 0.00 | 71 | 1018.6 |
| 20260507084511 | 40 | 160 | 9.0 | 18.0 | 0.00 | 0.00 | 0.00 | 71 | 1018.4 |
| 20260507083056 | 40 | 134 | 6.0 | 14.0 | 0.00 | 0.00 | 0.00 | 71 | 1018.4 |
| 20260507081554 | 40 | 201 | 4.0 | 19.0 | 0.00 | 0.00 | 0.00 | 71 | 1018.3 |
| 20260507080003 | 40 | 178 | 3.0 | 14.0 | 0.00 | 0.00 | 0.00 | 71 | 1018.2 |
| 20260507074558 | 40 | 164 | 5.0 | 17.0 | 0.00 | 0.00 | 0.00 | 70 | 1018.1 |
| 20260507073049 | 40 | 177 | 6.0 | 14.0 | 0.00 | 0.00 | 0.00 | 71 | 1018.0 |
| 20260507071545 | 39 | 130 | 6.0 | 14.0 | 0.00 | 0.00 | 0.00 | 71 | 1018.0 |
| 20260507070057 | 39 | 195 | 5.0 | 15.0 | 0.00 | 0.00 | 0.00 | 72 | 1017.9 |
| 20260507064610 | 39 | 193 | 5.0 | 10.0 | 0.00 | 0.00 | 0.00 | 72 | 1017.8 |
| 20260507063051 | 39 | 209 | 5.0 | 14.0 | 0.00 | 0.00 | 0.00 | 71 | 1017.6 |
| 20260507061503 | 40 | 219 | 4.0 | 10.0 | 0.00 | 0.00 | 0.00 | 70 | 1017.6 |
| 20260507060058 | 40 | 182 | 4.0 | 13.0 | 0.00 | 0.00 | 0.00 | 70 | 1017.5 |
| 20260507054600 | 40 | 152 | 6.0 | 18.0 | 0.00 | 0.00 | 0.00 | 70 | 1017.4 |
| 20260507053100 | 41 | 199 | 6.0 | 14.0 | 0.00 | 0.00 | 0.00 | 69 | 1017.3 |
| 20260507051556 | 41 | 161 | 8.0 | 17.0 | 0.00 | 0.00 | 0.00 | 68 | 1017.0 |
| 20260507050046 | 42 | 152 | 8.0 | 16.0 | 0.00 | 0.00 | 0.00 | 66 | 1017.0 |
| 20260507044502 | 42 | 239 | 5.0 | 13.0 | 0.00 | 0.00 | 0.00 | 67 | 1016.7 |
| 20260507043100 | 42 | 173 | 5.0 | 14.0 | 0.00 | 0.00 | 0.00 | 66 | 1016.6 |
| 20260507041600 | 43 | 232 | 10.0 | 21.0 | 0.00 | 0.00 | 0.00 | 65 | 1016.6 |
| 20260507040045 | 43 | 151 | 6.0 | 17.0 | 0.00 | 0.00 | 0.00 | 64 | 1016.6 |
| 20260507034612 | 44 | 132 | 5.0 | 18.0 | 0.00 | 0.00 | 0.00 | 63 | 1016.5 |
| 20260507033055 | 44 | 195 | 7.0 | 14.0 | 0.00 | 0.00 | 0.00 | 63 | 1016.5 |
| 20260507031549 | 44 | 191 | 8.0 | 16.0 | 0.00 | 0.00 | 0.00 | 62 | 1016.2 |
| 20260507030158 | 45 | 155 | 8.0 | 19.0 | 0.00 | 0.00 | 0.00 | 61 | 1016.0 |
| 20260507024601 | 45 | 219 | 7.0 | 18.0 | 0.00 | 0.00 | 0.00 | 62 | 1015.9 |
| 20260507023103 | 46 | 231 | 6.0 | 16.0 | 0.00 | 0.00 | 0.00 | 61 | 1015.7 |
| 20260507021601 | 46 | 169 | 8.0 | 18.0 | 0.00 | 0.00 | 0.00 | 60 | 1015.5 |
| 20260507020059 | 47 | 220 | 9.0 | 18.0 | 0.00 | 0.00 | 0.00 | 59 | 1015.5 |
| 20260507014605 | 48 | 209 | 8.0 | 22.0 | 0.00 | 0.00 | 0.00 | 59 | 1015.3 |
| 20260507013006 | 47 | 178 | 4.0 | 14.0 | 0.00 | 0.00 | 0.00 | 62 | 1015.1 |
| 20260507011559 | 47 | 182 | 10.0 | 18.0 | 0.00 | 0.00 | 0.00 | 60 | 1015.2 |
| 20260507010051 | 47 | 155 | 8.0 | 20.0 | 0.00 | 0.00 | 0.00 | 63 | 1015.1 |
| 20260507004542 | 47 | 210 | 5.0 | 13.0 | 0.00 | 0.00 | 0.00 | 62 | 1015.0 |
| 20260507003101 | 47 | 136 | 9.0 | 18.0 | 0.00 | 0.00 | 0.00 | 61 | 1015.1 |
| 20260507001609 | 47 | 196 | 9.0 | 16.0 | 0.00 | 0.00 | 0.00 | 59 | 1015.1 |
| 20260507000048 | 46 | 207 | 6.0 | 15.0 | 0.00 | 0.00 | 0.00 | 60 | 1015.2 |
| 20260506234502 | 46 | 167 | 5.0 | 17.0 | 0.00 | 0.00 | 0.00 | 63 | 1015.2 |
| 20260506233102 | 49 | 218 | 6.0 | 17.0 | 0.00 | 0.00 | 0.00 | 59 | 1015.0 |
| 20260506231552 | 47 | 160 | 9.0 | 20.0 | 0.00 | 0.00 | 0.00 | 59 | 1014.8 |
| 20260506230042 | 46 | 188 | 6.0 | 13.0 | 0.00 | 0.00 | 0.00 | 62 | 1014.9 |
| 20260506224601 | 48 | 147 | 7.0 | 14.0 | 0.00 | 0.00 | 0.00 | 57 | 1014.8 |
| 20260506223102 | 47 | 217 | 6.0 | 19.0 | 0.00 | 0.00 | 0.00 | 61 | 1014.8 |
| 20260506221603 | 47 | 229 | 6.0 | 13.0 | 0.00 | 0.00 | 0.00 | 62 | 1014.9 |
| 20260506220047 | 47 | 148 | 7.0 | 17.0 | 0.00 | 0.00 | 0.00 | 61 | 1015.0 |
| 20260506214503 | 47 | 146 | 5.0 | 13.0 | 0.00 | 0.00 | 0.00 | 65 | 1014.9 |
| 20260506213056 | 46 | 181 | 9.0 | 18.0 | 0.00 | 0.00 | 0.00 | 66 | 1015.0 |
| 20260506211550 | 45 | 237 | 7.0 | 16.0 | 0.00 | 0.00 | 0.00 | 67 | 1014.9 |
| 20260506210046 | 45 | 181 | 5.0 | 16.0 | 0.00 | 0.00 | 0.00 | 69 | 1015.1 |
| 20260506204503 | 44 | 153 | 10.0 | 18.0 | 0.00 | 0.00 | 0.00 | 74 | 1015.1 |
| 20260506203055 | 42 | 140 | 5.0 | 13.0 | 0.00 | 0.00 | 0.00 | 79 | 1015.1 |
| 20260506201550 | 41 | 165 | 6.0 | 14.0 | 0.00 | 0.00 | 0.00 | 79 | 1015.2 |
| 20260506200148 | 41 | 262 | 6.0 | 15.0 | 0.00 | 0.00 | 0.00 | 80 | 1015.1 |
| 20260506194609 | 41 | 210 | 5.0 | 15.0 | 0.00 | 0.00 | 0.00 | 80 | 1014.9 |